Weather in Zamboanga

Philippines     6°56′21″N   122°04′19″E
temp.,
°C
wind,
m/s
gust,
m/s
humid.,
%
clouds,
%
prec.,
mm/h
press.,
hPa
HPBL,
m
29 november, mon
mon2923:00+24n118996 0.0 100945
02:00+23ene118849 0.0 100849
05:00+23ene228967 0.0 100873
08:00+26ene23795 0.0 1009341
11:00+29ese136811 0.4 1008967
14:00+28se127584 2.8 1006742
17:00+26se018688 1.2 100787
20:00+24n1190100 1.4 100949
30 november, tue
tue3023:00+24nw119198 0.6 101033
02:00+23nw2291100 1.2 100887
05:00+23n128998 1.8 100855
08:00+26ese117854 2.6 1010239
11:00+28ssw117262 0.5 1009820
14:00+27wsw117997 3.1 1007549
17:00+25nnw1287100 1.8 1007190
20:00+23ne2292100 3.7 101044
1 december, wed
wed123:00+23nne129273 2.8 101046
02:00+23nne118892 3.4 100843
05:00+22ne118970 0.3 100922
08:00+25e1179100 0.6 1011181
11:00+28ssw1169100 0.5 1010912
14:00+25wnw1286100 2.2 1008328
17:00+24nnw129099 1.7 1008132
20:00+23nne1291100 1.9 101059
2 december, thu
thu223:00+23ne119186 0.0 101072
02:00+23n119197 0.1 100861
05:00+22n119170 0.0 100935
08:00+25e008192 0.1 1011240
11:00+28wsw2169100 0.1 1009966
14:00+27wnw2380100 1.6 1007526
17:00+25nw1289100 2.8 1008130
20:00+23nnw1293100 7.7 101152
3 december, fri
fri323:00+23nnw2293100 2.6 101163
02:00+23nnw1192100 6.9 100946
05:00+23nw119299 0.3 101074
08:00+25wsw1189100 1.1 1012119
11:00+27wsw227550 2.0 1011697
14:00+26w3377100 5.4 1009644
17:00+24nnw2291100 1.2 1010123
20:00+22nne1292100 4.0 101253